Location: Catacaguana
(10.4120°N, 66.7591°W)
Time: 07:05:47
(UTC+00:00)

Meteor 2-3 Rocket - Pass Details

Date: 27 May 2022
Orbit: 841 x 886 km, 81.2° (Epoch: 28 June)

Event Time Altitude Azimuth Distance (km) Brightness Sun altitude
Rises 09:36:48 0° 181° (S) 3,478 6.7 -7.0°
Reaches altitude 10° 09:39:15 10° 179° (S) 2,541 6.0 -6.5°
Maximum altitude 09:45:02 74° 95° (E) 920 4.1 -5.2°
Drops below altitude 10° 09:50:47 10° 10° (N) 2,536 6.7 -3.9°
Sets 09:53:14 0° 9° (N) 3,470 7.4 -3.3°
